• In Deutschland
  • Länderverzeichnis
  • Für 7 Tage
  • Wassertemperatur
  • Satellitenkarten
  • Wetterkarte
  • Widgets
  • user-avatar
    Anmelden

    Stündliche Wetter New Bern

    Heute, 25 Februar, Sonntag

    Zeit Temperatur Niederschläge Wind Luftdruck Luftfeuchtigkeit
    00:00 +19°C° 0 mm 4 m/S 764 mmHg 88%
    01:00 +19°C° 0 mm 4 m/S 764 mmHg 90%
    02:00 +19°C° 0 mm 4 m/S 764 mmHg 90%
    03:00 +19°C° 0 mm 4 m/S 764 mmHg 91%
    04:00 +19°C° 0 mm 4 m/S 764 mmHg 91%
    05:00 +19°C° 0 mm 4 m/S 764 mmHg 92%
    06:00 +19°C° 0 mm 4 m/S 764 mmHg 93%
    07:00 +19°C° 0 mm 4 m/S 764 mmHg 94%
    08:00 +21°C° 0 mm 5 m/S 764 mmHg 84%
    09:00 +23°C° 0 mm 5 m/S 764 mmHg 74%
    10:00 +26°C° 0 mm 6 m/S 764 mmHg 64%
    11:00 +27°C° 0 mm 6 m/S 764 mmHg 59%
    12:00 +28°C° 0 mm 6 m/S 763 mmHg 54%
    13:00 +29°C° 0 mm 6 m/S 763 mmHg 48%
    14:00 +28°C° 0,1 mm 6 m/S 763 mmHg 53%
    15:00 +27°C° 0,1 mm 5 m/S 763 mmHg 58%
    16:00 +26°C° 0,1 mm 4 m/S 763 mmHg 63%
    17:00 +24°C° 0,2 mm 3 m/S 763 mmHg 69%
    18:00 +22°C° 0,2 mm 3 m/S 763 mmHg 76%
    19:00 +21°C° 0,2 mm 2 m/S 763 mmHg 82%
    20:00 +21°C° 0,1 mm 2 m/S 764 mmHg 83%
    21:00 +20°C° 0,1 mm 2 m/S 764 mmHg 84%
    22:00 +20°C° 0,1 mm 2 m/S 764 mmHg 86%
    23:00 +20°C° 0 mm 2 m/S 764 mmHg 86%

    Morgen, 26 Februar, Montag

    Zeit Temperatur Niederschläge Wind Luftdruck Luftfeuchtigkeit
    00:00 +21°C° 0 mm 1 m/S 764 mmHg 86%
    01:00 +20°C° 0 mm 1 m/S 764 mmHg 87%
    02:00 +20°C° 0,2 mm 1 m/S 764 mmHg 87%
    03:00 +20°C° 0,2 mm 1 m/S 764 mmHg 88%
    04:00 +19°C° 0,2 mm 1 m/S 764 mmHg 89%
    05:00 +18°C° 1,4 mm 2 m/S 764 mmHg 90%
    06:00 +18°C° 1,4 mm 2 m/S 765 mmHg 91%
    07:00 +17°C° 1,4 mm 2 m/S 765 mmHg 92%
    08:00 +17°C° 0,6 mm 2 m/S 765 mmHg 91%
    09:00 +17°C° 0,6 mm 3 m/S 766 mmHg 89%
    10:00 +17°C° 0,6 mm 3 m/S 766 mmHg 88%
    11:00 +17°C° 0,7 mm 3 m/S 766 mmHg 88%
    12:00 +16°C° 0,7 mm 3 m/S 765 mmHg 89%
    13:00 +16°C° 0,7 mm 3 m/S 765 mmHg 89%
    14:00 +14°C° 0,9 mm 3 m/S 765 mmHg 90%
    15:00 +14°C° 0,9 mm 3 m/S 765 mmHg 91%
    16:00 +13°C° 0,9 mm 3 m/S 765 mmHg 93%
    17:00 +12°C° 0,4 mm 4 m/S 765 mmHg 92%
    18:00 +12°C° 0,4 mm 4 m/S 766 mmHg 91%
    19:00 +10°C° 0,4 mm 5 m/S 767 mmHg 90%
    20:00 +9°C° 0,3 mm 5 m/S 767 mmHg 89%
    21:00 +9°C° 0,3 mm 5 m/S 768 mmHg 87%
    22:00 +8°C° 0,3 mm 5 m/S 768 mmHg 86%
    23:00 +8°C° 0 mm 4 m/S 769 mmHg 85%

    übermorgen, 27 Februar, Dienstag

    Zeit Temperatur Niederschläge Wind Luftdruck Luftfeuchtigkeit
    00:00 +7°C° 0 mm 4 m/S 769 mmHg 84%
    01:00 +7°C° 0 mm 4 m/S 769 mmHg 84%
    02:00 +7°C° 0 mm 4 m/S 769 mmHg 83%
    03:00 +6°C° 0 mm 4 m/S 770 mmHg 83%
    04:00 +7°C° 0 mm 3 m/S 770 mmHg 83%
    05:00 +5°C° 0 mm 3 m/S 770 mmHg 82%
    06:00 +5°C° 0 mm 3 m/S 771 mmHg 82%
    07:00 +5°C° 0 mm 3 m/S 771 mmHg 81%
    08:00 +7°C° 0 mm 4 m/S 772 mmHg 73%
    09:00 +10°C° 0 mm 4 m/S 772 mmHg 64%
    10:00 +12°C° 0 mm 4 m/S 773 mmHg 55%
    11:00 +13°C° 0 mm 4 m/S 772 mmHg 49%
    12:00 +14°C° 0 mm 4 m/S 772 mmHg 43%
    13:00 +16°C° 0 mm 3 m/S 772 mmHg 37%
    14:00 +16°C° 0 mm 3 m/S 772 mmHg 37%
    15:00 +16°C° 0 mm 3 m/S 771 mmHg 37%
    16:00 +16°C° 0 mm 3 m/S 771 mmHg 37%
    17:00 +13°C° 0 mm 3 m/S 771 mmHg 44%
    18:00 +12°C° 0 mm 2 m/S 771 mmHg 51%
    19:00 +9°C° 0 mm 2 m/S 771 mmHg 57%
    20:00 +9°C° 0 mm 2 m/S 771 mmHg 61%
    21:00 +8°C° 0 mm 2 m/S 771 mmHg 64%
    22:00 +8°C° 0 mm 2 m/S 771 mmHg 68%
    23:00 +7°C° 0 mm 2 m/S 770 mmHg 71%

    28 Februar, Mittwoch

    Zeit Temperatur Niederschläge Wind Luftdruck Luftfeuchtigkeit
    00:00 +7°C° 0 mm 2 m/S 770 mmHg 73%
    01:00 +8°C° 0 mm 1 m/S 769 mmHg 76%
    02:00 +8°C° 0 mm 1 m/S 769 mmHg 78%
    03:00 +8°C° 0 mm 1 m/S 768 mmHg 80%
    04:00 +8°C° 0 mm 1 m/S 768 mmHg 82%
    05:00 +9°C° 0 mm 1 m/S 768 mmHg 83%
    06:00 +9°C° 0 mm 1 m/S 768 mmHg 84%
    07:00 +9°C° 0 mm 1 m/S 768 mmHg 85%
    08:00 +10°C° 0 mm 2 m/S 768 mmHg 78%
    09:00 +14°C° 0 mm 2 m/S 767 mmHg 72%
    10:00 +16°C° 0 mm 3 m/S 767 mmHg 66%
    11:00 +17°C° 0 mm 3 m/S 766 mmHg 63%
    12:00 +19°C° 0 mm 4 m/S 766 mmHg 60%
    13:00 +20°C° 0 mm 4 m/S 766 mmHg 56%
    14:00 +19°C° 0,2 mm 3 m/S 765 mmHg 63%
    15:00 +18°C° 0,2 mm 3 m/S 764 mmHg 69%
    16:00 +18°C° 0,2 mm 2 m/S 764 mmHg 76%
    17:00 +17°C° 0,1 mm 2 m/S 764 mmHg 80%
    18:00 +16°C° 0,1 mm 2 m/S 764 mmHg 85%
    19:00 +16°C° 0,1 mm 2 m/S 763 mmHg 90%
    20:00 +16°C° 0,1 mm 2 m/S 763 mmHg 91%
    21:00 +16°C° 0,1 mm 2 m/S 763 mmHg 93%
    22:00 +16°C° 0,1 mm 2 m/S 763 mmHg 95%
    23:00 +16°C° 0,1 mm 2 m/S 762 mmHg 95%

    1 März, Donnerstag

    Zeit Temperatur Niederschläge Wind Luftdruck Luftfeuchtigkeit
    00:00 +16°C° 0,1 mm 2 m/S 761 mmHg 96%
    01:00 +16°C° 0,1 mm 2 m/S 761 mmHg 96%
    02:00 +16°C° 0,7 mm 2 m/S 760 mmHg 97%
    03:00 +16°C° 0,7 mm 2 m/S 760 mmHg 97%
    04:00 +17°C° 0,7 mm 2 m/S 759 mmHg 97%
    05:00 +17°C° 1 mm 2 m/S 759 mmHg 98%
    06:00 +16°C° 1 mm 2 m/S 758 mmHg 98%
    07:00 +16°C° 1 mm 2 m/S 758 mmHg 98%
    08:00 +17°C° 0,4 mm 2 m/S 758 mmHg 97%
    09:00 +17°C° 0,4 mm 2 m/S 757 mmHg 96%
    10:00 +17°C° 0,4 mm 2 m/S 757 mmHg 94%
    11:00 +19°C° 0,1 mm 3 m/S 756 mmHg 89%
    12:00 +21°C° 0,1 mm 4 m/S 756 mmHg 83%
    13:00 +22°C° 0,1 mm 4 m/S 755 mmHg 78%
    14:00 +22°C° 0,4 mm 5 m/S 754 mmHg 76%
    15:00 +22°C° 0,4 mm 5 m/S 753 mmHg 74%
    16:00 +22°C° 0,4 mm 5 m/S 752 mmHg 73%
    17:00 +21°C° 1,4 mm 5 m/S 751 mmHg 79%
    18:00 +20°C° 1,4 mm 5 m/S 751 mmHg 85%
    19:00 +19°C° 1,4 mm 5 m/S 751 mmHg 91%
    20:00 +17°C° 0,6 mm 6 m/S 750 mmHg 88%
    21:00 +16°C° 0,6 mm 6 m/S 750 mmHg 86%
    22:00 +15°C° 0,6 mm 7 m/S 750 mmHg 83%
    23:00 +15°C° 0 mm 7 m/S 750 mmHg 82%

    2 März, Freitag

    Zeit Temperatur Niederschläge Wind Luftdruck Luftfeuchtigkeit
    00:00 +14°C° 0 mm 7 m/S 750 mmHg 81%
    01:00 +12°C° 0 mm 7 m/S 750 mmHg 80%
    02:00 +11°C° 0 mm 7 m/S 750 mmHg 75%
    03:00 +10°C° 0 mm 7 m/S 750 mmHg 71%
    04:00 +10°C° 0 mm 8 m/S 751 mmHg 67%
    05:00 +9°C° 0 mm 8 m/S 751 mmHg 64%
    06:00 +8°C° 0 mm 7 m/S 751 mmHg 61%
    07:00 +6°C° 0 mm 7 m/S 751 mmHg 59%
    08:00 +9°C° 0 mm 8 m/S 751 mmHg 55%
    09:00 +10°C° 0 mm 9 m/S 751 mmHg 51%
    10:00 +12°C° 0 mm 9 m/S 751 mmHg 48%
    11:00 +13°C° 0 mm 9 m/S 751 mmHg 46%
    12:00 +15°C° 0 mm 9 m/S 751 mmHg 45%
    13:00 +16°C° 0 mm 9 m/S 751 mmHg 43%
    14:00 +16°C° 0 mm 9 m/S 750 mmHg 44%
    15:00 +16°C° 0 mm 10 m/S 750 mmHg 44%
    16:00 +16°C° 0 mm 10 m/S 750 mmHg 45%
    17:00 +13°C° 0 mm 10 m/S 751 mmHg 48%
    18:00 +12°C° 0 mm 9 m/S 752 mmHg 50%
    19:00 +11°C° 0 mm 9 m/S 752 mmHg 53%
    20:00 +10°C° 0 mm 9 m/S 753 mmHg 54%
    21:00 +10°C° 0 mm 9 m/S 753 mmHg 55%
    22:00 +9°C° 0 mm 8 m/S 754 mmHg 56%
    23:00 +9°C° 0 mm 8 m/S 754 mmHg 57%
    Mehr zeigen